{"data":{"norad_id":66147,"epoch":"2026-09-20T22:07:21.930240Z","epoch_age_seconds":63926,"freshness":"FRESH","line1":"1 66147U 25240B   26263.92178160  .00012528  00000+0  38122-3 0  9996","line2":"2 66147  53.1563 233.5511 0001567  96.7911 263.3270 15.34405585 51965","mean_motion":15.34405585,"eccentricity":0.0001567,"inclination_deg":53.1563,"raan_deg":233.5511,"arg_perigee_deg":96.7911,"mean_anomaly_deg":263.327,"bstar":0.00038122,"rev_number":5196,"period_min":93.84741648995,"perigee_km":461.61468339601,"apogee_km":463.75859752493,"semimajor_km":6840.8236404605,"source":"CELESTRAK","updated_at":"2026-09-21T09:00:35.812344Z"}}